Regional Weather Roundup
Issued by NWS

Home | Current Version | Previous Version | Text Only | Print | Product List | Glossary Off
Versions: 1 2 3 4 5 6 7 8 9 10 11 12 13 14 15 16 17 18 19 20 21 22 23 24 25 26 27 28

000
ASUS45 KCYS 231110
RWRWY

WYOMING REGIONAL WEATHER ROUNDUP
NATIONAL WEATHER SERVICE CHEYENNE WY
500 AM MDT WED APR 23 2014

NOTE:  "FAIR" INDICATES FEW OR NO CLOUDS BELOW 12,000 FEET
WITH NO SIGNIFICANT WEATHER AND/OR OBSTRUCTIONS TO VISIBILITY.

WYZ001-231200-
YELLOWSTONE NATIONAL PARK

CITY           SKY/WX    TMP DP  RH WIND       PRES   REMARKS
LK YELLOWSTONE   N/A     26  21  81 W8        29.66S WCI  18
W YELLOWSTONE  NOT AVBL

$$
WYZ002>013-054>058-071-098>099-231200-
NORTHERN WYOMING

CITY           SKY/WX    TMP DP  RH WIND       PRES   REMARKS
JACKSON        CLOUDY    34  25  69 S22G29    29.73R WCI  22
CODY           MOCLDY    45  25  45 W15G21    29.53R
GREYBULL       CLOUDY    53  27  36 NW9       29.49R
WORLAND        CLOUDY    53  34  48 VRB3      29.50R
SHERIDAN         N/A     36  32  87 SW8         N/A  WCI  29
BUFFALO        CLOUDY    53  33  46 N22G28    29.43S
GILLETTE       MOCLDY    55  38  52 SW24      29.45S
HULETT         FAIR      57  39  51 S12       29.47
NEWCASTLE      FAIR      52  41  66 SE7       29.54

$$
WYZ014>020-022>026-101>103-231200-
CENTRAL WYOMING

CITY           SKY/WX    TMP DP  RH WIND       PRES   REMARKS
BIG PINEY      CLOUDY    30  23  75 NW14      29.76R WCI  19
PINEDALE       FLURRIES  32  27  80 W22G31    29.75R WCI  19
DUBOIS         FAIR      32  21  64 W32G40    29.59R WCI  17
LANDER         PTCLDY    43  23  45 NW14      29.60R
RIVERTON       PTCLDY    40  26  57 SW9       29.59R WCI  34
CASPER         CLOUDY    47  29  49 SW23G33   29.59F
DOUGLAS        MOCLDY    53  38  56 W21G29    29.58R

$$
WYZ021-027>030-104>119-231200-
SOUTHERN WYOMING

CITY           SKY/WX    TMP DP  RH WIND       PRES   REMARKS
EVANSTON       LGT SNOW  28  26  92 NW14      29.85R FOG     WCI  17
FORT BRIDGER   LGT SNOW  32  31  97 W21       29.85R WCI  19
ROCK SPRINGS   CLOUDY    33  26  75 W17       29.79S WCI  22
DIXON          LGT SNOW  34  33  95 SE3       29.84S
RAWLINS        CLOUDY    35  31  85 SW22G28   29.74R WCI  23
SARATOGA       CLOUDY    36  32  87 W15       29.80R WCI  26
LARAMIE        CLOUDY    46  30  53 W7        29.69R
CHEYENNE       CLOUDY    50  30  46 W10       29.61R
TORRINGTON     CLOUDY    50  41  71 CALM      29.51R
PINE BLUFFS    FAIR      46  37  71 W5        29.56F

$$



USA.gov is the U.S. government's official web portal to all federal, state and local government web resources and services.